Regional Weather Roundup
Issued by NWS Midland/Odessa, TX

Home | Current Version | Previous Version | Text Only | Print | Product List | Glossary On
Versions: 1 2 3 4 5 6 7 8 9 10 11 12 13 14 15 16 17 18 19 20 21 22 23 24 25 26 27 28 29 30 31 32 33 34 35 36 37 38 39 40 41 42 43 44 45 46 47 48 49 50
000
ASUS44 KMAF 261601
RWRMAF
MIDLAND AREA WEATHER ROUNDUP
NATIONAL WEATHER SERVICE MIDLAND TX
1100 AM CDT SUN JUN 26 2016

...IN SOUTHWEST TEXAS AND SOUTHEAST NEW MEXICO...

CITY           SKY/WX    TMP DP  RH WIND       PRES   REMARKS
ALPINE         SUNNY     80  57  45 CALM      30.26S
ANDREWS        PTSUNNY   79  64  60 SE9       30.20R
ARTESIA        MOSUNNY   75  64  69 E7        30.21S
BIG SPRING     CLOUDY    70  65  85 SE17      30.18F
CARLSBAD       SUNNY     77  62  59 VRB6      30.17S
DRYDEN           N/A     80  68  66 SE8       30.09F
FORT STOCKTON  SUNNY     82  66  58 SE10      30.12F
GUAD PASS      SUNNY     78  58  49 NE24G32     N/A
HOBBS          MOSUNNY   79  63  57 SE12      30.22S
MARFA            N/A    N/A N/A N/A MISG      30.24F
MIDLAND AIRPK  PTSUNNY   72  64  75 SE12      30.18F
MIDLAND INTL   CLOUDY    76  61  59 CALM      30.15F
ODESSA         MOSUNNY   78  66  66 S10       30.16F
PECOS          SUNNY     84  63  48 E12G20    30.10F
PRESIDIO       FAIR      86  63  45 SE5       30.09F
SEMINOLE       CLOUDY    78  61  56 S16       30.21S
SNYDER           N/A     73  69  85 S10       30.17F
WINK           SUNNY     81  65  58 SE16G24   30.13S
$$
...OTHER STATIONS IN TEXAS...

CITY           SKY/WX    TMP DP  RH WIND       PRES   REMARKS
ABILENE        CLOUDY    79  67  66 S13       30.16S
AMARILLO       CLOUDY    74  61  63 NW8       30.22S
AUSTIN         PTSUNNY   84  74  71 S9        30.13S
BROWNSVILLE    MOSUNNY   90  73  57 SE15      30.06R
CORPUS CHRISTI PTSUNNY   88  76  67 SE10      30.08S
DALLAS FTW     MOSUNNY   90  69  50 S15       30.12S
DEL RIO        CLOUDY    80  73  79 SE10      30.08S
EL PASO        MOSUNNY   83  52  34 E7        30.14S
HOUSTON INT    PTSUNNY   87  75  67 CALM      30.12F
LUBBOCK        CLOUDY    80  65  59 S13       30.20S
SAN ANGELO     CLOUDY    73  71  93 E8        30.16S
SAN ANTONIO    CLOUDY    85  74  69 SE9       30.13F
WACO           SUNNY     88  73  61 S9        30.13F
WICHITA FALLS  NOT AVBL
$$
...OTHER LOCATIONS IN NEW MEXICO...

CITY           SKY/WX    TMP DP  RH WIND       PRES   REMARKS
ALAMAGORDO     SUNNY     82  52  34 CALM      30.18S
ALBUQUERQUE    CLOUDY    80  52  37 E14G22    30.29R
CANNON AFB     CLOUDY    78  64  62 SE7       30.25R
CLOVIS         CLOUDY    79  63  57 SW7       30.25S
HOLLOMAN AFB   CLOUDY    83  53  36 VRB3      30.15S
ROSWELL        LGT RAIN  69  62  78 S7        30.23S
RUIDOSO          N/A     72  52  49 SE6       30.41R
SANTA FE       CLOUDY    74  51  44 SE14      30.36S
TRUTH OR CONSE PTSUNNY   79  51  37 NE10      30.22R
TUCUMCARI      CLOUDY    76  62  62 VRB3      30.24S
$$



USA.gov is the U.S. government's official web portal to all federal, state and local government web resources and services.